Zurück zum Katalog

OPS 4682 DEB

AktivPO
NORAD 49111·DEBRIS·🇺🇸 United States

Gestartet Apr 3, 1965 von Vandenberg Space Force Base

Loading…

Nächste Überflüge (nächste 24 Stunden)

TLE

AktuellSource: Space-Track

Epoche: Sep 13, 2026, 02:27 UTC

1 49111U 65027FU  26256.10268179  .00000006  00000-0 -43818-5 0  9997
2 49111  90.2572  10.3012 0025303  35.7648 324.5159 12.93069565498068

Verfolge OPS 4682 DEB in Echtzeit mit AllMySat

Download on the App Store